DW1289 Weather Reports


time (UTC)temp
F
wind
direction
speed
knots
gust
knots
rain 1hr
in
rain 24hr
in
rain mn
in
humidity
%
barometer
mb
20260504213036 79 225 6.1 16.5 0.00 0.07 0.07 45 1008.0
20260504212016 79 248 6.1 12.2 0.00 0.07 0.07 45 1008.2
20260504211016 81 248 6.1 11.3 0.00 0.07 0.07 45 1008.2
20260504210036 80 248 6.1 15.6 0.00 0.07 0.07 45 1008.3
20260504205016 80 248 5.2 13.0 0.00 0.07 0.07 46 1008.2
20260504204016 81 248 6.1 13.9 0.00 0.07 0.07 45 1008.3
20260504203016 81 248 6.1 13.0 0.00 0.07 0.07 47 1008.3
20260504202016 79 248 7.0 13.0 0.00 0.07 0.07 47 1008.4
20260504201016 80 248 6.1 13.0 0.00 0.07 0.07 45 1008.5
20260504200056 80 248 7.0 15.6 0.00 0.07 0.07 45 1008.6
20260504195016 80 248 6.1 14.8 0.00 0.07 0.07 44 1008.8
20260504194016 81 248 7.0 15.6 0.00 0.07 0.07 43 1009.0
20260504193016 81 248 7.0 15.6 0.00 0.07 0.07 45 1009.1
20260504192016 81 248 5.2 13.0 0.00 0.07 0.07 46 1009.2
20260504191016 80 248 6.1 13.9 0.00 0.07 0.07 46 1009.3
20260504190016 80 248 6.1 13.0 0.00 0.07 0.07 46 1009.3
20260504185016 80 248 7.0 15.6 0.00 0.07 0.07 48 1009.5
20260504184016 80 248 5.2 15.6 0.00 0.07 0.07 49 1009.6
20260504183036 79 248 6.1 10.4 0.00 0.07 0.07 48 1009.7
20260504182016 79 248 7.0 13.0 0.00 0.07 0.07 48 1009.6
20260504181036 79 248 6.1 13.0 0.00 0.07 0.07 48 1009.9
20260504180016 79 248 5.2 13.9 0.00 0.07 0.07 48 1009.8
20260504175036 79 248 5.2 10.4 0.00 0.07 0.07 52 1009.7
20260504174056 78 248 6.1 13.0 0.00 0.07 0.07 48 1009.8
20260504173016 78 248 5.2 13.0 0.00 0.07 0.07 51 1009.7
20260504172016 77 248 6.1 12.2 0.00 0.07 0.07 52 1009.9
20260504171016 77 248 5.2 13.0 0.00 0.07 0.07 53 1009.8
20260504151016 70 248 6.1 13.0 0.00 0.07 0.07 59 1010.8
20260504141036 59 248 4.3 8.7 0.00 0.07 0.07 77 1011.0
20260504081016 55 248 3.5 7.0 0.00 0.00 0.00 70 1011.5
20260504050016 54 248 1.7 6.1 0.00 0.00 0.00 67 1013.6
20260504045016 53 225 1.7 6.1 0.00 0.00 0.00 69 1013.8
20260504044016 53 248 1.7 7.0 0.00 0.00 0.00 71 1013.7
20260504043016 52 248 2.6 7.0 0.00 0.00 0.00 72 1013.9
20260504042016 52 225 1.7 4.3 0.00 0.00 0.00 70 1013.7
20260504041016 51 248 1.7 3.5 0.00 0.00 0.00 70 1013.8
20260504040016 51 0.0 2.6 0.00 0.00 0.00 69 1013.9
20260504035016 51 0.0 0.0 0.00 0.00 0.00 69 1014.0
20260504034017 51 0.0 0.0 0.00 0.00 0.00 69 1014.2
20260504033016 51 0.0 0.0 0.00 0.00 0.00 68 1014.1
20260504032016 51 0.0 0.0 0.00 0.00 0.00 68 1014.3
20260504031016 52 0.0 0.0 0.00 0.00 0.00 68 1014.5
20260504030016 52 0.0 0.0 0.00 0.00 0.00 68 1014.5
20260504025016 52 0.0 0.0 0.00 0.00 0.00 67 1014.5
20260504024017 53 0.0 0.0 0.00 0.00 0.00 66 1014.5
20260504023017 53 0.0 0.0 0.00 0.00 0.00 65 1014.5
20260504022016 54 0.0 0.0 0.00 0.00 0.00 63 1014.5
20260504021016 54 0.0 0.0 0.00 0.00 0.00 61 1014.6
20260504020016 55 0.0 0.0 0.00 0.00 0.00 60 1014.6
20260504015016 56 0.0 0.0 0.00 0.00 0.00 58 1014.5
20260504014016 57 0.0 0.0 0.00 0.00 0.00 56 1014.5
20260504013017 57 0.0 0.0 0.00 0.00 0.00 54 1014.5
20260504012036 59 0.0 0.0 0.00 0.00 0.00 52 1014.4
20260504011017 59 0.0 0.0 0.00 0.00 0.00 50 1014.3
20260504010017 60 0.0 1.7 0.00 0.00 0.00 49 1014.1
20260504005016 61 225 1.7 3.5 0.00 0.00 0.00 48 1013.7
20260504004016 61 248 1.7 6.1 0.00 0.00 0.00 48 1013.8
20260504003016 62 248 1.7 5.2 0.00 0.00 0.00 46 1013.9
20260504002016 62 248 2.6 6.1 0.00 0.00 0.00 46 1013.7
20260504001056 63 248 3.5 9.6 0.00 0.00 0.00 46 1013.7
20260504000016 63 225 3.5 9.6 0.00 0.00 0.00 45 1013.6
20260503235016 64 248 4.3 10.4 0.00 0.00 0.00 45 1013.5
20260503234016 64 248 4.3 10.4 0.00 0.00 0.00 45 1013.6
20260503233016 64 248 4.3 11.3 0.00 0.00 0.00 44 1013.6
20260503232036 64 248 4.3 10.4 0.00 0.00 0.00 44 1013.7
20260503231036 64 248 5.2 10.4 0.00 0.00 0.00 44 1013.7
20260503230016 65 248 3.5 9.6 0.00 0.00 0.00 44 1013.9
20260503225016 65 225 3.5 8.7 0.00 0.00 0.00 43 1014.2
20260503224016 65 248 5.2 10.4 0.00 0.00 0.00 43 1014.5
20260503223016 65 248 5.2 12.2 0.00 0.00 0.00 42 1014.5
20260503222016 66 248 5.2 11.3 0.00 0.00 0.00 41 1014.9
20260503221016 66 248 4.3 13.0 0.00 0.00 0.00 40 1014.7
20260503220016 66 248 5.2 10.4 0.00 0.00 0.00 40 1014.9
20260503215016 66 248 5.2 11.3 0.00 0.00 0.00 40 1015.3
20260503214036 66 248 7.0 12.2 0.00 0.00 0.00 37 1015.3